Station RTYC1 - 9414523 - Redwood City, CA Image indicating link to RSS feed of recent meteorological observations for station RTYC1


Conditions at RTYC1 as of
(12:30 am PDT)
0730 GMT on 04/14/2024:
     

Click on the graph icon in the table below to see a time series plot of the last five days of that observation.

5-day plot - Wind Direction Wind Direction (WDIR):ESE ( 120 deg true )
5-day plot - Wind Speed Wind Speed (WSPD): 8.9 kts
5-day plot - Wind Gust Wind Gust (GST): 14.0 kts
5-day plot - Atmospheric Pressure Atmospheric Pressure (PRES):29.93 in
5-day plot - Air Temperature Air Temperature (ATMP): 49.8 °F
5-day plot - Water Temperature Water Temperature (WTMP): 61.2 °F
5-day plot - Wind Chill Wind Chill (CHILL): 45.7 °F
5-day plot - Wind Speed at 10 Meters Wind Speed at 10 meters (WSPD10M): 9.7 kts
5-day plot - Wind Speed at 20 Meters Wind Speed at 20 meters (WSPD20M): 9.7 kts
5-day plot -  Wind Speed, Wind Gust and Atmospheric Pressure Combined plot of Wind Speed, Gust, and Air Pressure
NOS Water Level Observation Network Water Level
Previous observations
TIME
(PDT)
5-day plot - Wind Direction
WDIR
 
5-day plot - Wind Speed
WSPD
kts
5-day plot - Wind Gust
GST
kts
5-day plot - Wave Height
WVHT
ft
5-day plot - Dominant Wave Period
DPD
sec
5-day plot - Average Wave Period
APD
sec
5-day plot - Mean Wave Direction
MWD
 
5-day plot - Atmospheric Pressure
PRES
in
5-day plot - Pressure Tendency
PTDY
in
5-day plot - Air Temperature
ATMP
°F
5-day plot - Water Temperature
WTMP
°F
5-day plot - Dew Point
DEWP
°F
5-day plot - Salinity
SAL
psu
5-day plot - Visibility
VIS
nmi
5-day plot - Tide (above MLLW)
TIDE
ft
2024-04-14 12:24 amESE 7.0 14.0----29.93- 50.0 61.2----
2024-04-14 12:18 amESE 9.9 17.1----29.93- 49.6 61.2----
2024-04-14 12:12 amESE 8.0 12.0----29.93- 49.6 61.2----
2024-04-14 12:06 amESE 8.0 15.0----29.93- 49.5 61.2----
2024-04-14 12:00 amESE 8.9 13.0----29.93+0.00 49.5 61.2----
2024-04-13 11:54 pmESE 7.0 12.0----29.93- 49.5 61.2----
2024-04-13 11:48 pmESE 7.0 12.0----29.93- 49.5 61.2----
2024-04-13 11:42 pmESE 8.0 12.0----29.93- 49.6 61.2----
2024-04-13 11:36 pmESE 8.0 11.1----29.93- 49.6 61.3----
2024-04-13 11:30 pmESE 7.0 11.1----29.93- 49.6 61.3----
2024-04-13 11:24 pmESE 5.1 12.0----29.93- 49.8 61.3----
2024-04-13 11:18 pmESE 7.0 12.0----29.93- 50.0 61.3----
2024-04-13 11:12 pmESE 7.0 11.1----29.93- 50.0 61.3----
2024-04-13 11:06 pmESE 8.0 15.0----29.93- 50.2 61.3----
2024-04-13 11:00 pm SE 8.9 15.0----29.93+0.01 49.8 61.3----
2024-04-13 10:54 pmESE 9.9 18.1----29.93- 50.0 61.3----
2024-04-13 10:48 pmESE 8.9 15.0----29.93- 50.2 61.3----
2024-04-13 10:42 pmESE 11.1 17.1----29.93- 50.2 61.3----
2024-04-13 10:36 pmESE 8.9 15.0----29.93- 50.2 61.3----
2024-04-13 10:30 pm SE 8.0 14.0----29.93- 50.4 61.3----
2024-04-13 10:24 pmESE 9.9 17.1----29.93- 50.2 61.3----
2024-04-13 10:18 pmESE 11.1 15.0----29.93- 50.2 61.3----
2024-04-13 10:12 pmESE 9.9 15.9----29.93- 50.0 61.3----
2024-04-13 10:06 pmESE 9.9 18.1----29.93- 50.0 61.3----
2024-04-13 10:00 pmESE 8.0 14.0----29.94+0.02 50.0 61.3----
2024-04-13 09:54 pm SE 6.0 15.9----29.94- 50.0 61.3----
2024-04-13 09:48 pmESE 9.9 15.9----29.93- 50.2 61.3----
2024-04-13 09:42 pmESE 9.9 15.0----29.93- 50.4 61.3----
2024-04-13 09:36 pmESE 12.0 15.9----29.93- 50.4 61.3----
2024-04-13 09:30 pmESE 12.0 15.9----29.93- 50.5 61.3----
2024-04-13 09:24 pmESE 12.0 17.1----29.93- 50.5 61.3----
2024-04-13 09:18 pmESE 9.9 14.0----29.93- 50.7 61.3----
2024-04-13 09:12 pmESE 11.1 19.0----29.93- 50.7 61.3----
2024-04-13 09:06 pmESE 12.0 19.0----29.92- 50.7 61.3----
2024-04-13 09:00 pmESE 12.0 18.1----29.92+0.00 50.9 61.3----
2024-04-13 08:54 pmESE 9.9 18.1----29.92- 51.3 61.3----
2024-04-13 08:48 pmESE 12.0 20.0----29.92- 51.4 61.5----
2024-04-13 08:42 pmESE 14.0 21.0----29.92- 51.4 61.5----
2024-04-13 08:36 pmESE 12.0 19.0----29.92- 52.0 61.5----
2024-04-13 08:30 pmESE 12.0 19.0----29.92- 52.0 61.5----
2024-04-13 08:24 pmESE 11.1 15.0----29.92- 51.8 61.5----
2024-04-13 08:18 pmESE 9.9 15.9----29.92- 51.8 61.5----
2024-04-13 08:12 pmESE 11.1 15.0----29.92- 52.0 61.5----
2024-04-13 08:06 pmESE 11.1 15.9----29.92- 52.0 61.5----
2024-04-13 08:00 pmESE 8.9 14.0----29.92+0.01 52.0 61.5----
2024-04-13 07:54 pmESE 9.9 15.0----29.92- 52.0 61.5----
2024-04-13 07:48 pmESE 8.9 13.0----29.92- 52.2 61.5----
2024-04-13 07:42 pmESE 8.0 12.0----29.92- 52.2 61.5----
2024-04-13 07:36 pm E 8.9 14.0----29.92- 52.0 61.5----
2024-04-13 07:30 pmESE 8.9 15.9----29.93- 52.2 61.5----
2024-04-13 07:24 pmESE 9.9 14.0----29.92- 52.0 61.5----
2024-04-13 07:18 pm E 9.9 15.9----29.92- 52.0 61.5----
2024-04-13 07:12 pm E 9.9 15.0----29.92- 52.0 61.5----
2024-04-13 07:06 pmESE 9.9 15.9----29.92- 52.0 61.5----
2024-04-13 07:00 pmESE 9.9 14.0----29.92+0.01 51.8 61.5----
2024-04-13 06:54 pmESE 12.0 17.1----29.92- 51.8 61.5----
2024-04-13 06:48 pmESE 12.0 15.9----29.92- 51.6 61.5----
2024-04-13 06:42 pmESE 12.0 15.0----29.92- 51.4 61.5----
2024-04-13 06:36 pmESE 12.0 15.0----29.92- 51.8 61.7----
2024-04-13 06:30 pmESE 12.0 17.1----29.92- 51.8 61.7----
2024-04-13 06:24 pmESE 11.1 17.1----29.91- 52.0 61.7----
2024-04-13 06:18 pmESE 12.0 15.9----29.91- 51.8 61.7----
2024-04-13 06:12 pmESE 13.0 17.1----29.91- 51.4 61.7----
2024-04-13 06:06 pmESE 9.9 15.9----29.91- 52.3 61.7----
2024-04-13 06:00 pm E 8.9 15.9----29.92+0.01 52.2 61.7----
2024-04-13 05:54 pm E 11.1 15.9----29.92- 52.2 61.7----
2024-04-13 05:48 pm E 8.9 14.0----29.92- 52.5 61.7----
2024-04-13 05:42 pm E 9.9 17.1----29.91- 52.0 61.7----
2024-04-13 05:36 pm E 11.1 17.1----29.91- 52.2 61.7----
2024-04-13 05:30 pm E 14.0 18.1----29.91- 52.9 61.7----
2024-04-13 05:24 pm E 12.0 17.1----29.91- 53.2 61.7----
2024-04-13 05:18 pm-------29.91- 53.6 61.7----
2024-04-13 05:12 pm-------29.91- 53.8 61.7----
2024-04-13 05:06 pm-------29.91- 54.5 61.7----
2024-04-13 05:00 pm-------29.91+0.00 54.0 61.7----
2024-04-13 04:54 pm-------29.91- 53.8 61.7----
2024-04-13 04:48 pmESE 9.9 15.0----29.90- 53.8 61.7----
2024-04-13 04:42 pmESE 11.1 14.0----29.90- 54.0 61.7----
2024-04-13 04:36 pmESE 11.1 14.0----29.90- 53.8 61.5----
2024-04-13 04:30 pm SE 9.9 12.0----29.90- 53.8 61.5----
2024-04-13 04:24 pmESE 8.0 12.0----29.90- 54.3 61.5----
2024-04-13 04:18 pm SE 6.0 8.9----29.90- 54.3 61.5----
2024-04-13 04:12 pm SE 7.0 9.9----29.90- 54.3 61.5----
2024-04-13 04:06 pmESE 7.0 9.9----29.90- 54.1 61.5----
2024-04-13 04:00 pm SE 7.0 11.1----29.91+0.01 54.1 61.5----
2024-04-13 03:54 pm SE 5.1 9.9----29.91- 54.0 61.5----
2024-04-13 03:48 pm SE 4.1 9.9----29.91- 53.4-----
2024-04-13 03:42 pmESE 7.0 12.0----29.90- 53.2-----
2024-04-13 03:36 pm E 7.0 9.9----29.89- 53.1-----
2024-04-13 03:30 pm E 7.0 13.0----29.90- 53.1 61.5----
2024-04-13 03:24 pm E 7.0 14.0----29.91- 53.1 61.5----
2024-04-13 03:18 pm E 8.0 12.0----29.91- 53.1 61.5----
2024-04-13 03:12 pm E 8.9 14.0----29.90- 52.7 61.5----
2024-04-13 03:06 pm E 8.0 11.1----29.90- 52.9 61.5----
2024-04-13 03:00 pmESE 8.9 12.0----29.91+0.02 53.6 61.5----
2024-04-13 02:54 pm E 8.0 12.0----29.91- 53.1 61.5----
2024-04-13 02:48 pm E 8.0 12.0----29.90- 52.7 61.5----
2024-04-13 02:42 pmESE 7.0 8.9----29.90- 53.1 61.7----
2024-04-13 02:36 pmESE 6.0 8.9----29.90- 53.1 61.7----
2024-04-13 02:30 pmESE 6.0 8.9----29.91- 52.9 61.7----
2024-04-13 02:24 pmESE 5.1 8.9----29.91- 52.9 61.7----
2024-04-13 02:18 pm E 5.1 7.0----29.91- 52.9 61.7----
2024-04-13 02:12 pmESE 4.1 7.0----29.91- 52.9 61.7----
2024-04-13 02:06 pm E 2.9 8.0----29.91- 52.7 61.5----
2024-04-13 02:00 pmESE 5.1 7.0----29.91+0.02 52.7 61.5----
2024-04-13 01:54 pm E 4.1 9.9----29.91- 52.3 61.5----
2024-04-13 01:48 pm--------- 52.3 61.5----
2024-04-13 01:42 pm--------- 52.5 61.5----
2024-04-13 01:36 pm--------- 52.2 61.3----
2024-04-13 01:30 pm E 5.1 8.9----29.91-- 61.3----
2024-04-13 01:24 pm E 6.0 9.9----29.91-- 61.3----
2024-04-13 01:18 pm E 6.0 8.9----29.90- 52.0 61.3----
2024-04-13 01:12 pmESE 4.1 8.9----29.90- 52.2 61.3----
2024-04-13 01:06 pm E 7.0 11.1----29.90- 51.6 61.3----
2024-04-13 01:00 pmESE 8.0 12.0----29.90+0.01 51.3 61.3----
2024-04-13 12:54 pm E 6.0 9.9----29.90- 51.3 61.3----
2024-04-13 12:48 pmESE 7.0 12.0----29.90- 50.7 61.2----
2024-04-13 12:42 pmESE 8.0 12.0----29.89- 50.9 61.2----
2024-04-13 12:36 pm SE 8.0 13.0----29.89- 50.5 61.2----
2024-04-13 12:30 pmESE 7.0 14.0----29.89- 50.5 61.2----
2024-04-13 12:24 pm SE 8.9 14.0----29.89- 50.2 61.2----
2024-04-13 12:18 pm E 8.9 13.0----29.88- 50.0 61.2----
2024-04-13 12:12 pmESE 9.9 14.0----29.88- 50.0 61.3----
2024-04-13 12:06 pmESE 8.0 13.0----29.88- 49.8 61.3----
2024-04-13 12:00 pmESE 8.9 14.0----29.89+0.00 49.8 61.3----
2024-04-13 11:54 amESE 9.9 15.0----29.89- 49.5 61.3----
2024-04-13 11:48 amESE 8.9 15.9----29.89-- 61.2----
2024-04-13 11:42 amESE 9.9 15.0----29.88-- 61.2----
2024-04-13 11:36 amESE 9.9 15.0----29.87-- 61.2----
2024-04-13 11:30 amESE 11.1 17.1----29.88- 49.3 61.2----
2024-04-13 11:24 amESE 14.0 17.1----29.88- 49.3 61.2----
2024-04-13 11:18 am-------29.88-- 61.2----
2024-04-13 11:12 am-------29.88-- 61.2----
2024-04-13 11:06 am-------29.89-- 61.2----
2024-04-13 11:00 am SE 8.0 14.0----29.89+0.00 49.1 61.2----
2024-04-13 10:54 am SE 8.0 14.0----29.89- 49.1 61.2----
2024-04-13 10:48 am SE 9.9 14.0----29.89-- 61.2----
2024-04-13 10:42 am SE 11.1 17.1----29.89-- 61.3----
2024-04-13 10:36 amESE 12.0 18.1----29.89-- 61.3----
2024-04-13 10:30 amESE 11.1 19.0----29.89- 48.6 61.5----
2024-04-13 10:24 amESE 12.0 15.9----29.88- 48.6 61.7----
2024-04-13 10:18 amESE 8.9 15.9----29.89- 48.4 61.7----
2024-04-13 10:12 amESE 8.9 15.0----29.89- 48.2 61.9----
2024-04-13 10:06 amESE 11.1 22.9----29.90- 48.4 61.9----
2024-04-13 10:00 amESE 15.0 20.0----29.88+0.00 48.2 61.9----
2024-04-13 09:54 amESE 15.9 19.0----29.89- 47.8 61.9----
2024-04-13 09:48 amESE 12.0 18.1----29.89- 48.0 62.1----
2024-04-13 09:42 amESE 13.0 17.1----29.89- 48.2 62.1----
2024-04-13 09:36 am E 12.0 18.1----29.87- 48.2 62.1----
2024-04-13 09:30 am E 8.9 17.1----29.88-- 62.1----
2024-04-13 09:24 amESE 12.0 18.1----29.89-- 62.1----
2024-04-13 09:18 amESE 11.1 15.9----29.89-- 62.1----
2024-04-13 09:12 amESE 9.9 14.0----29.88-- 62.1----
2024-04-13 09:06 amESE 7.0 12.0----29.88-- 62.1----
2024-04-13 09:00 amESE 8.0 12.0----29.89+0.03 48.2 62.1----
2024-04-13 08:54 am E 7.0 12.0----29.90- 48.4 62.1----
2024-04-13 08:48 am-------29.90-- 62.1----
2024-04-13 08:42 am-------29.89-- 62.1----
2024-04-13 08:36 am-------29.88-- 62.1----
2024-04-13 08:30 amESE 8.0 11.1----29.89- 47.8 62.1----
2024-04-13 08:24 amESE 7.0 9.9----29.90- 47.7 62.1----
2024-04-13 08:18 am SE 6.0 8.0----29.89- 47.5 62.1----
2024-04-13 08:12 am SE 4.1 6.0----29.89- 47.7 62.1----
2024-04-13 08:06 amSSE 5.1 11.1----29.89- 47.3 62.1----
2024-04-13 08:00 amSSE 8.9 12.0----29.89- 47.3 62.2----
2024-04-13 07:54 am SE 7.0 12.0----29.89- 47.7 62.2----
2024-04-13 07:48 amESE 8.0 13.0----29.89- 47.8 62.2----
2024-04-13 07:42 am SE 6.0 12.0----29.89- 48.0 62.2----
2024-04-13 07:36 am SE 6.0 8.9----29.89- 47.8 62.2----
2024-04-13 07:30 am SE 7.0 8.9----29.88- 47.8 62.2----
2024-04-13 07:24 am SE 4.1 8.0----29.88- 48.0 62.2----
2024-04-13 07:18 amSSE 4.1 6.0----29.88- 47.7 62.2----
2024-04-13 07:12 amSSE 5.1 7.0----29.88- 48.0 62.2----
2024-04-13 07:06 amESE 1.9 4.1----29.88- 47.5 62.2----
2024-04-13 07:00 am S 1.9 5.1----29.88+0.06 47.7 62.2----
2024-04-13 06:54 am SW 4.1 7.0----29.87- 47.8 62.2----
2024-04-13 06:48 am S 1.9 6.0----29.87- 47.8 62.2----
2024-04-13 06:42 am SW 4.1 6.0----29.87- 47.3 62.2----
2024-04-13 06:36 am SE 2.9 4.1----29.87- 47.7 62.2----
2024-04-13 06:30 amSSW 1.9 7.0----29.86- 48.2 62.2----
2024-04-13 06:24 amSSW 2.9 6.0----29.86- 47.8 62.2----
2024-04-13 06:18 amSSW 2.9 5.1----29.86- 48.6 62.2----
2024-04-13 06:12 amWNW 4.1 6.0----29.85- 48.7 62.2----
2024-04-13 06:06 am W 2.9 6.0----29.85- 49.5 62.2----
2024-04-13 06:00 am W 4.1 8.0----29.86+0.06- 62.2----
2024-04-13 05:54 am W 6.0 8.9----29.85-- 62.2----
2024-04-13 05:48 am W 5.1 8.9----29.85- 49.6 62.2----
2024-04-13 05:42 am W 4.1 7.0----29.85- 49.6 62.2----
2024-04-13 05:36 am W 2.9 9.9----29.84- 50.0 62.2----
2024-04-13 05:30 amWSW 7.0 9.9----29.84- 49.6 62.2----
2024-04-13 05:24 amWSW 8.0 11.1----29.84- 49.3 62.4----
2024-04-13 05:18 amWSW 6.0 8.9----29.83- 50.0 62.4----
2024-04-13 05:12 am W 2.9 8.9----29.83- 49.8 62.4----
2024-04-13 05:06 am W 6.0 11.1----29.83- 49.8 62.4----
2024-04-13 05:00 am W 5.1 11.1------- 62.4----
2024-04-13 04:54 am W 4.1 8.9------- 62.4----
2024-04-13 04:48 am W 5.1 9.9----29.83-- 62.4----
2024-04-13 04:42 amWSW 5.1 9.9----29.83-- 62.4----
2024-04-13 04:36 am W 2.9 8.0----29.82-- 62.4----
2024-04-13 04:30 amWSW 4.1 7.0----29.82-------
2024-04-13 04:24 amWSW 6.0 8.9----29.82-------
2024-04-13 04:18 am-------29.82- 50.0 62.4----
2024-04-13 04:12 am-------29.83- 50.7 62.4----
2024-04-13 04:06 am-------29.83- 50.5 62.4----
2024-04-13 04:00 amWSW 8.9 13.0----29.82+0.02 50.9 62.4----
2024-04-13 03:54 amWSW 8.0 11.1----29.82- 51.8 62.4----
2024-04-13 03:48 am SW 8.9 11.1----29.82-- 62.4----
2024-04-13 03:42 amWSW 7.0 9.9----29.81-- 62.4----
2024-04-13 03:36 amWSW 5.1 11.1----29.81-- 62.4----
2024-04-13 03:30 am W 5.1 11.1----29.81- 52.7-----
2024-04-13 03:24 amSSW 6.0 9.9----29.81- 53.2-----
2024-04-13 03:18 am-------29.80- 54.0 62.4----
2024-04-13 03:12 am-------29.80- 54.5 62.4----
2024-04-13 03:06 am-------29.80- 55.0 62.4----
2024-04-13 03:00 amSSE 6.0 9.9----29.79-0.01- 62.4----
2024-04-13 02:54 amSSE 7.0 11.1----29.79-- 62.4----
2024-04-13 02:48 am SE 8.9 13.0----29.79- 55.8 62.6----
2024-04-13 02:42 am SE 8.0 15.0----29.79- 56.1 62.6----
2024-04-13 02:36 am SE 8.9 12.0----29.79- 56.1 62.6----
2024-04-13 02:30 amSSE 7.0 11.1----29.79- 56.1 62.6----
2024-04-13 02:24 amSSE 6.0 9.9----29.80- 55.8 62.6----
2024-04-13 02:18 amSSE 6.0 11.1----29.80- 55.6 62.6----
2024-04-13 02:12 am SE 8.9 12.0----29.80- 55.6 62.6----
2024-04-13 02:06 amSSE 7.0 12.0----29.80- 55.6 62.6----
2024-04-13 02:00 amSSE 11.1 13.0----29.80-0.01 54.9 62.6----
2024-04-13 01:54 amSSE 11.1 15.9----29.80- 55.2 62.6----
2024-04-13 01:48 am S 11.1 17.1----29.80- 55.8 62.6----
2024-04-13 01:42 am S 8.9 21.0----29.80- 56.5 62.6----
2024-04-13 01:36 amSSE 12.0 17.1----29.80- 56.5 62.6----
2024-04-13 01:30 amSSE 11.1 17.1----29.80-- 62.6----
2024-04-13 01:24 amSSE 11.1 15.0----29.80-- 62.6----
2024-04-13 01:18 am S 12.0 18.1----29.80- 57.2 62.6----
2024-04-13 01:12 am S 12.0 17.1----29.80- 57.4 62.6----
2024-04-13 01:06 am S 8.0 14.0----29.80- 57.6 62.6----
2024-04-13 01:00 am S 8.9 14.0----29.80+0.00- 62.6----
2024-04-13 12:54 am S 11.1 13.0----29.80-- 62.6----